Home > Weather > Narragansett > Past weeks

Flag for U.S.A. Weather for the Past 2 Weeks in Narragansett, Rhode Island, U.S.A.

Now
14 °F

Clear.


Feels Like: -2 °F
Forecast: 14 / 25 °F
Wind: 16 mph from West

Location: Newport State Airport

Current Time: Feb 11, 2016 at 11:02:56 PM

Latest Report: Feb 11, 2016 at 9:53 PM


Visibility: 10 mi

Pressure: 30.02 "Hg

Humidity: 51%

Dew point: -1 °F

Location of NarragansettLocation

Historic Weather in Narragansett — Graph

°F

Narragansett Temperature Yesterday

Maximum temperature yesterday: 34 °F (at 11:53 AM)
Minimum temperature yesterday: 22 °F (at 12:53 AM)
Average temperature yesterday: 30 °F

High & Low Weather Summary for the Past Weeks

 TemperatureHumidityPressure
High54 °F (Feb 1, 11:53 AM)100% (Jan 29, 3:53 AM)30.40 "Hg (Jan 29, 3:53 AM)
Low15 °F (Feb 11, 8:53 PM)35% (Feb 2, 1:53 PM)29.36 "Hg (Jan 29, 12:53 PM)
Average36 °F76%29.91 "Hg
* Reported Jan 27 8:53 PM — Feb 11 8:53 PM, Narragansett, Weather by CustomWeather, © 2016

Note: Actual official high and low records may vary slightly from our data, if they occured in-between our weather recording intervals... More about our weather records

Advertising

Narragansett Weather History for the Previous 24 Hours

 ConditionsComfort  
Time TempWeatherWind HumidityBarometerVisibility
8:53 PM
Thu, Feb 11
15 °FClear.18 mph51%29.99 "Hg10 mi
7:53 PM17 °FClear.22 mph47%29.96 "Hg10 mi
6:53 PM18 °FClear.22 mph52%29.93 "Hg10 mi
5:53 PM20 °FPassing clouds.23 mph48%29.88 "Hg10 mi
4:53 PM22 °FPassing clouds.15 mph46%29.83 "Hg10 mi
3:53 PM24 °FScattered clouds.15 mph44%29.80 "Hg10 mi
2:53 PM24 °FPassing clouds.14 mph40%29.77 "Hg10 mi
1:53 PM26 °FPartly sunny.9 mph37%29.74 "Hg10 mi
12:53 PM26 °FLight snow. Mostly cloudy.13 mph44%29.74 "Hg10 mi
11:53 AM28 °FScattered clouds.15 mph45%29.75 "Hg10 mi
10:53 AM26 °FOvercast.12 mph57%29.75 "Hg10 mi
9:53 AM26 °FMostly cloudy.13 mph66%29.74 "Hg10 mi
8:53 AM26 °FCloudy.13 mph71%29.74 "Hg9 mi
7:53 AM26 °FOvercast.13 mph63%29.72 "Hg10 mi
6:53 AM26 °FMostly cloudy.9 mph63%29.70 "Hg10 mi
5:53 AM26 °FPassing clouds.12 mph63%29.69 "Hg10 mi
4:53 AM26 °FClear.6 mph69%29.68 "Hg10 mi
3:53 AM28 °FClear.9 mph64%29.66 "Hg10 mi
2:53 AM29 °FClear.10 mph64%29.66 "Hg10 mi
1:53 AM30 °FClear.6 mph66%29.66 "Hg10 mi
12:53 AM30 °FClear.7 mph69%29.67 "Hg10 mi
11:53 PM
Wed, Feb 10
31 °FClear.7 mph73%29.67 "Hg10 mi
Weather by CustomWeather, © 2016

See weather overviewHow to use our weather pages